User: anonymous   Login
Location: Unspecified
(0.0000°N, 0.0000°E)
Time: 02:58:41
(UTC+00:00)
Language:

OTV 5 (USA 277) - Orbit

View from above orbital plane
View from above orbital plane
View from above satellite
View from above satellite

Ground track
Ground track

The orbit data is extracted from the following two-line orbital elements,

1 42932U 17052A   19290.22574643 0.00000000  00000-0  00000-0 0    02
2 42932  54.5181 335.2238 0010332 254.4306 105.5693 15.84702038    02
Epoch (UTC): 17 October 2019 05:25:04
Eccentricity: 0.0010332
inclination: 54.5181°
perigee height: 310 km
apogee height: 324 km
right ascension of ascending node: 335.2238°
argument of perigee: 254.4306°
revolutions per day: 15.84702038
mean anomaly at epoch: 105.5693°
orbit number at epoch: 0

The dashed part of the orbit path shows where the satellite is in the earth's shadow,  

DLR